Theta_e
314 315 319 321 320 321 324 327 326 325 323 319 319 319 319 320 320 319 319 319 321 320 319 320 319 322 323 322 322 325 327 326 328 329 335 339 339 339 340 340 338 335 335 335 333 332 330 332 334 334 334 334 333 333 332 332 332 332 332 333 333 332 332 333 332 331 329 328 327 326 326 326 324 323 323 321 320 318 313 311 307 308 314 318 322 327 327 327 328 325 316 310 308 308 309 309 310
314 315 319 320 319 322 326 326 325 323 319 318 319 319 318 319 321 320 321 321 321 320 320 319 320 321 320 321 320 324 329 328 325 327 335 337 338 340 339 340 338 334 335 335 333 331 330 330 333 333 333 333 332 333 332 332 331 331 331 332 332 332 332 331 332 330 328 327 326 326 326 326 324 324 324 322 320 319 316 312 309 312 318 322 326 329 328 328 328 324 314 308 308 308 309 309 309
314 317 320 322 323 324 326 325 323 321 318 316 317 318 319 319 321 322 321 321 321 320 321 320 321 321 321 322 320 324 330 330 325 326 334 334 336 338 338 339 338 336 335 334 332 331 332 329 330 331 332 332 331 332 332 332 331 331 331 332 332 331 331 330 330 330 328 327 327 326 325 326 326 325 324 322 320 319 317 313 313 316 322 326 327 327 328 329 328 322 313 308 308 308 309 309 309
315 319 322 325 327 326 327 327 325 320 317 316 316 318 320 321 322 321 321 321 320 320 321 321 321 320 321 322 320 326 330 330 326 324 332 334 333 335 336 339 339 338 336 334 332 332 333 330 328 330 332 331 330 330 330 331 330 331 331 331 332 331 331 330 329 328 327 326 326 326 326 326 326 326 323 322 321 319 317 315 316 320 325 330 328 328 329 329 326 316 309 308 308 308 308 309 309
317 320 322 325 329 328 325 325 324 321 317 318 317 319 320 321 322 320 320 320 320 320 320 321 321 319 320 322 322 326 327 330 330 326 332 337 335 332 334 338 339 338 337 336 335 334 333 331 329 329 330 330 329 328 329 330 330 330 331 331 331 330 330 329 328 327 326 326 326 325 326 326 326 326 323 321 321 319 316 314 315 317 324 329 329 329 330 329 323 310 307 308 307 308 308 308 308
318 321 321 323 325 325 325 322 321 319 318 320 317 318 320 320 321 320 319 319 319 320 320 321 320 320 322 321 322 326 327 330 331 330 333 337 335 331 333 337 339 338 337 338 337 336 334 331 330 329 329 329 329 328 328 330 330 330 330 329 330 330 329 328 327 326 325 324 325 325 325 325 326 325 322 322 321 318 315 313 312 312 316 324 328 328 326 322 314 307 307 308 307 307 307 308 309
320 323 322 323 324 324 325 323 320 320 319 320 319 318 319 319 321 319 319 319 319 319 319 320 318 320 322 320 322 324 327 327 325 326 330 331 329 330 332 335 339 338 337 338 338 337 335 331 331 331 328 329 329 327 327 328 330 330 329 328 328 329 328 327 327 325 322 322 324 326 325 325 326 324 322 322 321 318 314 312 311 310 310 316 320 319 315 311 308 307 307 307 307 307 309 311 312
322 324 324 325 327 325 325 324 320 321 319 319 320 318 320 319 320 319 319 318 318 318 318 318 318 320 319 321 325 321 322 323 320 320 325 324 322 328 331 335 339 338 338 337 338 337 336 333 331 330 328 328 328 327 326 326 327 328 328 327 327 327 327 326 327 324 320 321 323 326 327 326 325 323 322 322 321 318 314 311 309 309 308 308 310 309 308 307 307 307 306 307 309 311 314 314 314
322 324 323 324 327 324 323 323 320 320 318 319 319 319 320 319 320 319 319 318 318 318 318 318 318 320 318 322 325 321 319 317 318 317 318 318 321 327 329 335 338 338 339 336 337 337 336 335 331 328 328 328 328 327 327 327 326 326 326 327 326 326 326 327 325 323 320 321 324 326 328 327 325 322 322 322 322 319 315 311 308 307 306 306 306 306 307 307 306 306 307 310 314 316 317 316 315
321 323 323 324 325 322 320 321 321 320 319 319 318 319 319 319 320 319 319 318 317 318 319 318 318 319 318 321 324 324 319 314 317 315 316 316 319 324 327 335 338 339 339 337 337 336 336 335 332 329 328 328 328 328 328 327 326 325 325 326 327 325 326 326 325 324 321 322 324 327 328 328 325 322 322 323 322 320 318 315 311 308 306 305 306 306 306 306 305 307 311 315 318 318 318 318 316
323 321 322 325 323 320 319 321 322 321 319 318 318 319 319 318 319 319 319 317 317 319 318 317 318 318 318 321 323 324 319 315 316 315 315 315 316 320 325 334 337 339 339 338 338 336 337 335 333 331 330 330 328 329 328 326 326 326 325 325 327 326 327 326 325 325 323 322 325 327 328 328 325 322 322 322 323 322 320 320 318 313 308 306 305 306 306 305 307 312 316 319 320 319 319 317 316
325 324 323 323 323 321 321 322 321 320 319 318 318 318 319 318 318 318 319 317 317 318 318 317 318 318 317 321 322 321 318 315 315 314 315 315 315 316 322 332 335 339 339 337 338 337 337 335 334 332 332 332 330 330 328 325 325 327 325 324 326 327 327 326 325 325 323 323 325 326 327 328 326 322 321 321 322 323 321 320 321 319 314 311 308 307 308 308 312 317 320 320 320 319 319 318 317
325 326 324 322 325 325 321 322 322 322 321 318 318 318 318 318 318 317 317 317 316 317 317 317 318 318 317 321 320 319 318 316 315 315 315 315 315 314 320 329 333 338 339 337 337 337 337 336 335 334 334 333 333 333 330 327 325 326 325 324 325 326 327 326 325 325 324 325 326 325 326 327 327 324 322 320 321 323 323 320 321 322 319 315 312 310 310 313 317 320 321 321 320 320 319 319 317
324 325 325 325 327 325 322 323 322 321 320 319 318 318 318 317 317 317 317 317 317 317 317 317 317 317 317 320 319 321 321 316 315 315 315 315 315 314 317 325 330 335 338 338 337 337 337 336 335 334 334 334 334 333 332 330 327 326 326 324 324 326 327 327 326 325 324 326 326 325 325 325 326 325 323 321 321 322 323 322 321 322 321 317 315 313 314 317 319 320 321 321 320 320 320 319 317
322 322 325 326 324 323 323 323 323 321 319 319 318 318 318 317 317 317 317 317 317 318 318 316 316 317 317 320 320 321 320 315 315 315 314 315 314 315 315 318 326 332 335 337 337 337 338 336 335 334 334 334 335 334 334 333 329 327 326 324 323 326 327 327 327 325 324 326 325 325 325 324 325 325 324 322 321 321 323 323 322 322 322 318 316 316 317 319 320 321 321 321 321 320 320 318 315
319 321 325 324 322 322 321 322 322 321 319 318 317 318 317 317 317 317 317 317 317 317 317 316 315 316 318 322 320 319 318 315 315 314 315 315 314 315 315 315 322 330 331 333 335 336 337 337 336 335 334 333 334 335 334 334 331 328 328 325 323 325 326 327 327 324 323 325 324 324 324 324 324 324 324 322 321 321 322 324 323 322 322 320 317 318 319 321 321 321 321 321 321 321 319 316 313
318 322 326 322 322 322 321 322 321 320 318 317 317 317 317 316 316 316 316 316 317 317 316 317 316 316 317 318 317 317 317 315 315 315 315 315 315 315 316 315 319 326 327 329 334 335 336 336 336 336 335 334 334 335 335 335 333 330 330 327 324 324 326 327 327 325 324 324 324 323 323 323 324 324 323 322 322 321 321 323 324 323 323 321 318 319 321 321 322 322 321 321 321 321 319 316 312
319 323 324 321 322 322 321 321 320 321 319 316 316 317 317 317 316 315 316 315 316 317 317 317 316 315 315 316 315 315 315 315 315 316 316 315 315 315 315 315 315 320 321 323 330 333 334 335 336 336 335 334 335 336 336 335 335 333 331 328 326 324 324 325 325 325 324 324 324 323 323 323 323 324 323 323 322 322 322 323 324 323 323 323 320 319 321 322 322 322 322 322 321 321 320 317 311
320 324 322 321 323 320 319 319 318 320 319 317 316 317 317 317 316 315 315 316 315 317 317 317 317 316 315 315 315 315 315 315 315 315 316 315 315 315 315 315 315 317 317 318 322 327 330 333 336 336 335 334 335 336 336 336 335 334 333 331 328 325 324 323 323 324 324 324 325 324 324 323 323 324 323 323 322 322 322 322 324 324 323 323 322 320 321 321 322 322 322 322 322 321 320 316 310
319 322 322 321 320 318 318 318 318 319 318 318 317 317 317 317 317 316 316 316 316 316 317 316 317 317 316 315 315 315 315 315 315 315 315 315 315 315 315 315 315 316 316 315 317 320 323 329 334 336 335 334 335 335 335 335 336 335 334 333 331 328 325 323 323 324 324 326 326 326 326 325 324 324 324 323 323 323 323 322 323 324 324 323 324 322 321 321 322 322 323 323 323 322 321 315 309
318 319 320 319 317 318 318 317 317 318 319 318 318 317 317 317 317 317 316 316 316 316 317 317 317 317 317 316 316 315 315 315 315 315 315 315 315 315 315 315 315 316 318 316 316 316 317 322 328 332 333 334 334 335 335 336 336 336 335 334 334 332 329 325 324 327 326 327 328 328 329 328 327 326 324 323 323 323 323 323 322 324 324 323 324 324 322 322 323 323 323 323 323 322 320 314 308
318 317 317 318 317 318 316 316 316 317 318 318 317 316 317 317 317 317 317 317 317 317 318 317 317 318 317 317 317 316 315 315 315 315 315 315 315 315 315 315 314 317 320 317 315 315 314 316 320 325 330 333 334 334 335 336 336 336 335 335 335 334 333 328 326 329 329 328 329 330 330 329 328 327 325 324 324 324 324 323 323 323 324 324 323 324 324 323 323 323 323 323 323 321 317 311 308
317 317 316 317 317 317 316 316 316 316 318 317 317 317 317 317 317 317 317 317 317 318 318 317 317 318 318 318 317 317 316 316 315 315 315 315 315 315 314 315 314 316 319 317 315 315 314 314 315 319 323 328 332 334 335 336 336 336 335 335 335 334 335 332 329 328 329 329 330 330 330 330 328 327 326 325 325 324 324 324 323 323 324 324 323 324 324 324 324 323 323 323 323 320 314 309 307
317 317 316 316 317 317 316 315 315 316 317 317 317 317 317 317 317 317 317 317 317 318 318 317 317 317 317 317 317 316 316 316 316 315 315 315 315 315 315 315 315 315 317 316 315 315 314 314 315 316 318 320 328 333 334 335 335 335 335 334 334 334 334 334 331 329 329 330 330 330 330 330 329 327 326 326 326 324 324 324 324 324 325 324 324 324 324 324 324 323 323 323 322 318 312 308 307
317 317 316 316 317 316 315 315 315 315 316 316 316 316 317 317 317 316 317 317 317 317 317 317 317 317 316 316 316 316 315 316 316 316 315 315 315 314 315 316 316 316 316 316 314 315 314 314 315 315 316 316 323 331 333 333 332 333 335 334 334 334 334 334 334 331 330 330 330 330 330 330 329 328 327 327 327 325 325 326 325 326 326 325 324 324 324 324 324 324 323 323 320 315 311 308 307
317 317 317 317 317 316 315 315 315 316 316 316 316 316 317 317 317 316 317 317 317 317 317 317 317 317 316 316 316 316 316 316 315 316 316 316 315 315 314 315 316 316 316 316 315 315 314 314 314 314 315 316 321 328 331 331 330 329 332 334 333 334 333 333 334 333 331 330 330 330 331 330 329 329 328 327 328 327 327 327 326 327 327 326 324 324 324 324 324 324 323 322 318 313 310 308 307
318 317 317 317 317 316 316 317 316 316 316 316 316 317 317 317 316 317 318 318 317 317 317 317 317 317 317 316 316 316 316 316 316 316 316 315 315 315 315 315 315 316 317 316 315 315 314 314 314 314 314 316 322 326 329 330 329 328 329 331 333 334 333 333 333 333 333 332 331 331 331 330 330 329 329 328 328 328 328 327 327 327 326 326 326 325 324 324 324 324 323 322 318 313 309 307 306
317 317 317 317 317 317 317 317 316 316 316 316 316 317 317 317 317 317 318 319 319 318 318 317 317 317 317 317 317 317 316 317 317 316 316 316 316 315 315 315 315 316 316 315 315 315 314 314 314 314 314 315 319 324 326 327 328 328 327 328 331 333 333 332 332 331 332 332 332 332 331 330 330 329 329 329 328 328 328 328 327 327 326 326 326 326 325 324 324 324 324 321 316 312 309 307 305
317 317 318 317 317 318 317 317 317 317 317 317 316 317 318 317 318 318 317 318 319 318 318 318 317 317 317 317 317 317 317 317 317 317 317 316 316 316 315 315 315 315 315 315 315 315 314 314 314 314 314 314 315 318 321 323 326 328 326 325 327 329 330 330 331 330 331 332 332 332 332 331 330 329 329 329 328 328 328 328 327 327 326 325 326 326 325 325 324 324 323 320 315 311 309 307 306
318 317 317 318 318 318 318 318 318 317 316 317 316 319 320 318 318 318 318 318 318 318 318 318 318 318 318 318 318 317 317 317 317 317 317 317 316 316 316 315 315 315 315 315 315 315 314 314 314 314 313 314 314 314 316 318 323 326 326 324 323 326 326 326 328 327 330 333 333 332 331 331 330 330 330 329 329 328 328 328 327 327 327 325 325 326 325 325 325 324 323 320 314 310 308 307 306
318 318 318 319 318 318 318 317 317 317 317 317 317 318 320 318 318 319 319 319 319 318 318 318 318 318 318 318 318 318 318 317 317 317 316 317 316 316 316 315 315 315 314 315 315 314 314 314 314 314 313 313 314 314 314 316 319 324 328 327 324 324 323 323 322 324 329 333 333 332 330 329 329 329 330 330 329 329 329 328 327 327 326 326 325 325 325 325 324 324 323 320 314 309 308 307 305
318 318 319 320 319 318 319 317 317 317 316 316 317 319 319 317 318 319 319 319 318 318 318 318 318 319 318 319 319 319 318 318 317 317 317 316 316 316 316 316 316 315 315 315 314 314 314 314 314 314 313 313 313 314 313 315 317 320 327 330 329 326 325 322 319 324 333 335 334 332 330 329 327 327 329 330 330 329 329 329 328 326 326 327 326 325 325 325 324 323 322 319 316 313 310 308 306
319 318 319 321 320 319 318 317 316 317 316 316 317 318 319 318 318 319 319 318 318 317 317 318 318 318 319 319 319 319 319 318 317 318 318 317 317 317 316 316 316 316 316 315 315 314 314 314 314 314 313 313 313 314 314 313 315 316 321 327 328 326 325 321 319 328 336 335 334 333 332 330 326 326 329 330 330 329 328 328 329 327 326 326 326 325 325 325 324 323 321 318 315 314 312 310 307
320 319 318 320 321 319 317 317 317 317 316 317 317 317 317 318 317 318 318 318 318 318 318 318 318 318 319 319 319 319 318 319 318 318 319 318 318 318 317 317 316 316 316 315 315 315 314 314 314 314 313 313 313 313 314 314 314 315 316 319 321 320 319 319 319 328 336 335 334 334 333 330 327 327 329 330 329 328 328 328 329 328 326 325 325 325 324 324 323 322 321 317 313 312 312 311 308
320 321 319 318 319 317 317 317 317 317 317 317 317 317 317 317 317 317 318 318 318 318 318 318 318 318 318 318 319 319 319 319 318 318 318 318 318 318 318 318 317 317 316 316 315 315 315 314 314 314 313 313 313 313 313 314 314 314 315 316 317 315 314 315 316 324 332 334 334 334 332 330 328 327 328 329 329 327 327 328 329 328 326 324 325 325 324 324 324 322 321 318 313 309 310 310 308
318 320 319 318 318 317 317 317 316 316 317 317 317 317 317 317 317 317 317 318 318 318 318 318 318 319 318 319 318 318 319 319 318 318 318 318 318 318 318 319 318 318 317 316 315 315 315 315 315 314 314 313 313 313 313 313 314 314 315 315 315 314 313 314 314 318 326 332 334 333 331 329 329 326 324 326 328 327 327 328 328 328 326 325 325 325 324 324 324 322 320 319 316 310 308 308 308
317 318 318 318 318 317 317 317 316 315 317 318 318 318 317 317 317 317 317 318 318 317 318 318 318 319 319 319 319 318 318 318 318 318 318 318 318 318 318 318 318 318 317 317 316 316 315 315 315 314 314 314 313 313 313 313 313 313 314 314 314 314 313 313 314 314 318 326 331 333 331 328 329 329 323 323 327 328 328 328 328 327 327 326 326 325 325 324 323 322 320 320 318 314 310 308 307
316 317 318 319 319 319 318 318 316 315 317 318 317 318 317 317 317 317 317 317 317 317 317 318 318 318 319 319 319 319 318 319 318 319 319 318 318 318 318 318 318 318 318 318 317 317 316 315 315 315 314 314 314 313 313 313 313 312 313 314 313 313 313 313 314 313 313 316 321 326 328 325 326 328 324 322 327 329 328 328 327 327 328 326 326 325 324 323 322 321 321 320 318 315 312 310 307
317 318 318 320 321 320 318 318 316 315 317 319 318 318 318 317 318 317 316 317 317 318 318 318 318 318 318 318 319 319 319 320 319 319 319 319 319 318 318 318 318 318 318 318 318 316 316 316 316 316 315 315 314 314 313 314 313 312 312 313 313 313 313 313 313 313 313 313 313 316 321 322 322 323 321 321 326 329 328 328 327 327 327 327 325 324 323 322 322 321 321 321 318 314 311 309 306
320 320 319 320 322 321 318 317 317 316 317 319 319 319 317 317 318 317 317 317 317 318 318 318 318 318 319 319 319 319 320 320 320 320 320 320 320 319 319 319 318 318 318 317 317 316 316 316 316 316 316 315 315 314 314 314 313 312 311 312 313 312 312 313 313 313 313 313 312 312 316 319 320 320 320 322 326 328 328 327 327 326 327 326 325 323 322 322 321 320 319 321 320 315 311 307 304
321 323 321 321 321 321 319 319 320 318 319 321 321 322 322 320 320 320 319 319 318 318 318 318 319 318 319 319 319 320 320 320 320 321 321 321 320 320 319 319 318 318 318 317 317 317 316 316 316 315 315 315 315 314 314 314 313 312 312 311 312 312 312 313 313 313 313 313 313 312 315 319 322 323 323 325 327 328 328 327 327 326 325 325 324 323 322 321 320 319 319 320 320 318 314 308 303
320 323 322 321 320 320 322 323 323 320 320 321 321 324 327 324 323 325 324 323 322 320 319 319 320 319 319 320 320 319 320 320 320 320 321 321 320 320 319 318 318 318 317 317 316 316 316 316 315 315 315 315 314 314 314 313 313 312 312 311 312 312 312 313 313 313 313 313 312 314 320 325 327 328 328 328 328 328 328 328 327 326 325 324 324 323 322 321 320 319 320 320 319 318 314 309 304
317 323 325 323 321 322 323 323 323 322 321 321 322 323 324 320 320 323 323 323 323 321 321 320 320 321 321 320 321 320 321 320 320 320 320 320 320 319 319 318 318 318 317 317 316 316 316 315 315 315 315 314 314 314 314 313 313 313 312 311 312 312 312 313 313 313 313 313 313 318 324 328 328 328 329 329 328 328 328 327 326 326 325 324 324 323 322 321 320 319 320 320 319 317 313 308 305
320 324 326 323 321 322 323 322 323 323 323 323 323 323 323 321 319 319 319 319 320 321 322 320 319 321 321 321 321 321 322 322 321 320 319 319 319 318 318 318 318 318 318 317 317 316 316 315 315 314 314 314 314 313 313 313 313 313 313 312 311 311 312 313 313 313 313 313 317 322 326 328 326 326 327 328 328 326 325 324 325 324 325 324 323 322 322 321 320 320 320 320 319 317 311 306 304
323 323 324 324 323 323 323 322 323 325 324 324 325 324 323 322 321 320 319 319 320 321 323 321 320 320 321 321 322 322 322 322 320 320 319 318 319 318 318 319 318 318 318 318 318 317 316 316 315 315 314 314 314 313 313 313 312 312 312 312 311 311 312 312 313 313 313 315 320 324 327 326 324 324 326 327 326 325 324 323 323 324 323 322 322 321 320 320 320 320 321 319 318 315 309 305 303
321 321 324 325 324 323 323 322 323 325 323 323 327 326 318 316 319 321 320 320 322 322 323 323 320 320 322 321 322 322 322 321 319 319 319 319 319 319 318 319 318 319 319 319 318 318 317 317 316 315 315 314 314 313 313 313 312 312 312 311 311 311 311 312 313 313 314 316 321 325 326 323 321 322 324 325 325 325 324 323 322 322 322 321 321 320 319 320 320 320 320 319 317 312 306 304 303
319 322 325 324 322 323 324 323 322 325 324 323 328 326 316 314 320 321 321 324 326 322 321 322 320 320 322 322 322 322 320 319 319 319 319 319 319 319 319 319 319 319 319 319 319 319 318 318 317 316 316 315 314 313 313 313 312 312 312 312 311 310 311 312 312 313 315 317 319 323 324 321 321 323 324 324 325 324 323 322 322 321 321 321 321 319 319 319 320 320 319 319 317 311 305 303 302
320 323 324 323 324 323 323 322 323 325 324 322 326 326 318 315 319 321 322 325 325 322 321 321 320 320 322 324 323 321 320 319 319 319 319 319 319 319 319 319 319 319 319 318 318 318 318 318 318 317 316 316 315 315 314 313 312 312 312 311 311 310 311 312 312 313 315 316 318 321 322 321 321 323 325 325 325 324 323 322 321 321 321 322 321 319 319 319 320 320 319 318 316 310 304 303 301
323 323 323 324 323 323 325 325 327 326 322 321 325 325 320 317 318 321 322 322 321 321 320 319 320 320 321 322 322 321 321 320 319 319 319 319 319 319 319 319 319 318 318 318 318 318 318 318 317 317 316 316 316 315 314 314 313 312 312 311 311 310 310 312 312 313 314 317 319 321 322 322 321 321 324 324 323 324 323 322 321 321 321 321 320 320 319 320 320 319 318 318 315 309 303 302 301
322 323 324 325 321 321 324 325 327 327 323 322 323 325 324 319 319 322 321 319 320 320 319 319 319 319 319 319 320 321 320 320 320 319 318 319 318 319 319 318 318 318 318 318 318 317 317 317 317 317 316 316 315 315 315 315 314 313 312 312 311 310 310 311 312 312 313 316 319 321 321 321 321 321 321 321 322 324 323 322 321 320 320 320 319 319 319 320 319 319 318 317 315 309 303 301 300
319 321 323 324 321 319 320 321 324 327 325 321 320 324 326 320 319 323 321 318 319 319 320 320 319 319 320 319 320 320 320 320 320 319 318 318 318 318 318 318 318 318 317 317 317 317 317 317 317 317 316 316 315 315 315 316 316 314 312 312 311 310 311 311 312 312 312 314 319 322 322 322 322 321 319 320 323 324 324 322 321 320 320 319 318 317 319 320 319 319 318 316 314 309 303 300 300
318 320 321 323 322 317 319 321 321 323 324 323 322 324 325 320 319 321 319 318 319 319 319 319 319 320 319 319 319 319 320 320 319 319 319 319 318 318 318 318 317 317 317 317 317 317 318 317 317 317 316 316 315 315 315 315 316 314 313 312 311 310 310 311 312 312 312 315 319 322 322 323 322 321 320 321 323 324 323 321 320 319 319 317 317 316 318 319 318 318 317 316 314 309 302 300 300
319 321 321 324 323 319 320 322 320 319 320 320 320 320 319 317 318 319 318 318 319 319 320 319 319 320 319 318 317 317 319 319 319 320 319 319 319 318 318 318 317 317 317 317 317 317 317 317 317 316 316 316 315 315 315 315 315 314 313 312 311 310 310 311 311 311 312 316 319 321 322 322 321 321 322 322 322 322 321 320 319 318 318 316 316 316 317 318 318 318 317 315 312 307 302 299 299
323 323 321 322 323 322 320 321 321 321 319 319 319 317 316 315 317 320 319 318 319 320 321 319 318 319 319 318 317 317 318 319 319 320 319 319 319 318 318 317 317 317 317 317 317 317 317 316 317 317 316 316 315 315 315 314 315 314 313 312 310 310 310 310 311 311 312 315 317 320 321 320 321 322 322 321 321 321 320 319 318 317 316 315 316 316 318 318 318 317 317 314 310 305 301 299 299
320 322 319 321 324 323 322 319 319 320 318 318 319 317 316 317 318 319 318 320 322 321 322 321 318 318 318 318 318 317 318 318 319 319 318 319 319 318 318 317 318 318 318 318 317 317 317 317 317 317 316 316 315 314 314 314 314 314 313 312 310 309 310 310 310 311 313 313 314 317 319 320 321 320 320 320 320 321 320 318 317 316 315 315 315 317 318 318 317 316 315 312 309 305 302 300 299
318 318 319 322 323 323 323 321 319 319 318 317 318 317 316 318 320 319 318 320 322 321 322 322 319 317 318 318 318 318 318 319 319 319 319 319 319 319 318 318 318 318 318 318 318 318 318 317 317 317 317 316 315 315 314 314 314 314 313 312 311 310 309 310 311 311 313 314 314 317 319 320 320 318 318 319 320 320 319 318 316 316 315 315 314 315 317 317 316 314 312 309 306 304 302 300 299
318 319 321 322 321 321 323 323 320 320 319 318 319 317 316 319 321 321 320 321 321 321 323 322 318 317 319 318 318 319 319 319 319 318 319 319 319 319 319 318 318 318 318 318 318 318 318 317 318 318 317 316 316 315 314 314 314 314 314 313 312 310 309 310 311 311 313 313 314 317 320 319 318 318 317 318 319 320 319 318 317 316 316 315 314 315 316 317 315 313 309 305 303 302 301 300 299
317 317 318 319 320 320 321 322 320 321 322 321 320 318 317 320 321 320 321 323 323 321 321 321 319 318 319 319 319 320 320 319 319 318 319 318 319 319 319 319 318 318 318 318 318 318 318 318 317 317 318 318 316 316 315 315 314 314 314 313 312 311 310 309 310 310 311 312 313 316 319 319 318 318 317 316 318 319 319 317 316 316 315 315 314 315 315 316 314 311 308 304 301 300 300 299 298
Wind_Speed
5 5 7 6 5 3 4 3 3 3 2 4 4 2 3 3 2 4 5 4 3 6 9 7 7 6 4 2 5 14 14 8 3 1 2 9 16 15 14 14 13 13 11 11 10 10 11 10 11 12 12 11 12 11 11 10 10 9 10 11 11 11 11 12 12 12 12 12 13 13 13 14 15 16 16 16 15 15 14 14 13 14 15 19 22 20 16 14 14 14 14 16 17 19 20 20 21
5 5 7 4 5 4 4 5 2 2 3 5 4 3 4 2 1 5 6 5 6 6 8 8 6 4 3 3 3 9 14 11 7 9 12 17 19 15 16 13 12 14 11 11 11 10 11 10 11 12 13 11 12 11 10 10 9 9 9 10 10 10 10 11 11 11 11 11 12 11 12 12 14 14 15 14 14 14 13 13 13 14 16 19 20 18 15 13 13 15 15 16 18 19 20 21 21
6 6 7 2 5 6 6 2 2 2 5 4 3 3 3 3 4 8 9 9 10 10 9 7 6 4 3 3 4 6 8 10 9 14 19 18 16 16 18 14 11 12 11 11 11 10 10 10 12 12 13 12 11 11 11 10 9 9 9 9 9 9 9 9 10 9 10 10 11 10 11 11 12 13 13 14 13 13 12 12 12 14 19 19 18 17 15 13 12 14 15 17 19 19 20 21 22
7 6 6 1 5 5 4 2 2 3 4 4 3 2 3 6 7 9 10 11 10 9 7 5 5 4 4 4 6 7 9 9 7 12 19 13 10 17 19 16 12 11 11 10 11 11 10 10 11 11 12 12 11 11 11 10 9 8 9 9 9 9 8 8 8 8 9 9 9 10 10 11 11 12 13 13 13 13 12 12 12 15 20 17 16 16 15 13 12 14 16 17 19 19 20 20 22
7 6 4 1 3 3 2 2 1 4 4 2 4 3 4 8 8 8 10 10 8 6 5 3 3 4 5 6 5 6 8 10 9 11 18 14 12 18 18 18 13 10 11 9 10 10 11 11 11 11 10 10 9 10 11 10 8 8 8 8 8 8 7 7 7 7 8 8 8 9 10 10 11 11 12 13 13 13 12 12 11 14 18 16 15 15 14 13 12 15 17 18 19 19 20 20 21
7 3 2 2 5 4 3 2 3 5 4 3 4 4 6 9 9 10 11 10 7 6 5 3 2 3 6 6 5 7 7 8 11 12 17 16 14 17 18 19 12 10 11 9 9 9 10 11 11 11 10 9 8 8 10 10 9 8 7 7 7 7 6 6 6 6 7 7 7 8 9 10 10 11 12 13 13 13 12 12 11 12 13 15 15 13 13 13 14 17 18 18 19 19 20 21 22
8 2 1 4 6 3 3 0 5 5 4 5 5 4 7 10 12 12 10 8 5 5 5 3 2 1 5 6 5 7 8 7 10 12 16 16 14 17 18 18 13 10 11 11 10 9 10 10 11 11 10 9 8 8 8 9 9 8 8 7 6 6 5 5 5 6 6 6 7 8 9 10 10 10 11 12 13 13 12 12 12 12 12 12 13 12 13 15 17 18 18 19 19 20 21 22 23
6 1 1 3 2 2 2 3 6 4 2 4 6 5 10 13 14 10 7 6 4 5 5 2 1 0 3 7 5 5 8 5 6 9 13 13 11 17 19 15 12 11 11 12 10 9 9 10 10 10 10 10 9 8 7 8 8 9 8 7 6 5 5 5 5 5 6 6 6 7 8 9 9 10 11 12 13 13 13 12 13 13 13 13 13 14 15 17 18 19 19 20 20 21 22 23 23
2 2 2 1 2 2 1 4 5 4 4 4 5 7 13 13 13 10 6 6 6 6 7 4 0 0 3 8 9 6 6 4 5 8 10 9 11 16 18 15 11 12 12 11 10 9 9 9 10 10 10 9 9 8 7 7 7 8 8 8 7 6 6 5 4 4 5 5 6 6 7 8 8 9 10 12 13 13 13 13 13 14 14 14 14 15 16 17 18 19 20 20 21 22 22 22 22
3 5 2 2 2 3 2 4 5 4 5 6 6 8 11 11 9 9 7 7 7 7 7 5 2 1 2 10 12 4 3 5 6 9 10 11 14 16 18 16 11 12 12 11 10 10 10 10 10 10 10 9 9 8 7 7 7 8 8 9 8 6 7 6 4 4 4 5 5 6 7 7 7 9 10 11 12 12 13 14 13 14 14 14 14 15 16 18 19 19 20 21 21 21 21 21 21
3 6 2 2 3 3 1 4 5 4 5 6 8 9 9 9 7 6 7 8 7 7 7 5 3 2 1 9 12 5 3 6 7 9 11 11 14 15 18 17 12 11 12 11 10 10 10 11 11 10 10 9 9 8 7 7 7 8 8 9 9 7 7 6 4 4 4 4 5 6 6 6 7 8 9 10 11 11 12 12 13 13 14 14 14 15 17 18 19 20 20 20 20 20 20 20 20
2 4 2 2 4 1 2 4 5 5 6 4 6 9 9 9 6 4 5 7 7 7 8 5 3 4 2 6 9 8 6 6 8 9 10 11 13 15 17 18 15 13 12 11 10 10 10 11 12 11 10 9 9 8 7 7 8 8 7 9 10 8 7 6 5 4 4 4 4 5 5 6 7 8 8 9 9 10 10 11 11 12 13 13 14 15 17 19 20 20 20 19 19 19 19 19 18
2 3 2 3 4 2 3 3 5 5 4 5 7 10 11 9 6 6 5 6 8 6 7 6 3 3 2 8 9 10 10 9 8 8 10 11 13 15 18 19 18 15 12 11 11 10 10 12 13 12 12 11 10 9 8 8 8 9 8 9 11 9 8 7 5 4 3 4 4 5 5 5 6 6 7 7 8 8 9 9 10 11 12 12 13 15 17 18 19 19 18 18 18 18 18 17 17
3 5 1 2 2 2 2 2 3 3 2 5 11 13 11 9 6 6 6 5 6 5 9 8 4 3 3 8 9 12 13 11 8 9 10 11 12 14 18 21 21 19 15 13 13 11 11 12 13 13 13 12 11 10 10 9 9 9 8 8 11 10 9 8 7 6 4 4 4 4 4 5 5 5 5 6 7 7 8 8 9 10 11 11 12 14 16 18 18 17 16 16 17 17 17 16 15
3 7 3 2 2 1 1 2 1 0 2 5 11 16 11 6 6 4 2 3 5 8 11 7 5 2 1 4 9 13 13 10 10 11 11 11 11 13 16 20 22 21 18 17 16 14 12 13 14 13 13 13 12 12 11 11 10 10 9 9 11 11 10 9 9 7 5 5 4 4 4 5 5 5 4 5 6 6 7 7 8 9 10 10 11 13 15 16 16 15 15 15 16 16 15 15 14
3 5 1 2 2 1 1 2 2 2 2 4 10 15 10 5 7 4 2 5 6 8 8 4 5 3 3 7 12 11 9 9 13 12 12 11 11 13 14 17 22 22 20 20 19 17 15 14 14 13 13 13 13 13 13 12 12 11 10 10 10 12 11 10 10 8 6 6 6 5 4 4 4 4 4 4 4 5 6 6 7 8 9 10 11 12 13 14 13 13 13 14 14 14 14 13 13
3 3 0 2 2 2 2 3 3 3 3 6 11 14 8 5 6 4 2 4 5 5 5 3 5 6 2 6 9 5 5 9 13 13 13 13 13 13 14 15 21 23 21 20 21 20 18 16 16 14 13 13 13 14 14 13 13 12 12 11 11 12 12 11 10 9 8 8 7 6 4 4 4 4 4 3 3 4 5 6 6 7 8 9 10 11 12 11 11 11 12 12 12 12 12 12 12
2 0 2 4 3 1 1 2 4 5 6 6 11 13 8 6 8 6 4 4 4 4 5 6 6 8 8 5 4 4 5 9 12 14 14 14 14 15 14 15 18 22 22 20 22 23 21 20 18 16 15 14 14 15 14 13 13 13 13 12 12 12 13 13 11 10 9 8 7 5 5 4 4 5 4 3 3 3 4 5 5 6 7 8 9 10 10 9 9 9 10 10 10 10 10 11 10
2 1 2 3 1 3 6 8 8 5 6 9 10 10 6 7 10 8 4 6 9 6 6 9 8 9 11 11 9 7 7 8 11 13 14 14 15 15 16 16 17 20 21 20 21 23 24 23 21 19 17 16 16 15 15 13 13 14 14 14 13 13 13 14 13 11 9 8 7 5 6 6 5 6 4 4 3 3 4 4 5 6 7 8 8 8 8 8 8 7 8 8 8 8 9 10 9
2 2 1 1 1 5 10 13 10 7 5 9 10 7 4 7 9 9 5 6 10 9 9 12 12 12 13 13 13 12 11 10 10 12 14 15 15 16 16 17 17 18 19 19 19 21 23 25 25 23 21 19 18 16 15 14 13 14 15 15 15 14 14 14 13 11 10 9 8 6 7 6 4 5 5 5 4 3 4 4 5 6 7 8 8 7 8 8 7 6 6 7 7 7 8 8 8
2 1 1 3 4 4 8 11 9 7 6 8 9 5 3 5 6 7 6 4 6 10 13 14 15 16 15 14 13 13 14 13 12 13 14 15 16 17 17 17 17 17 18 19 19 19 20 23 26 26 24 23 21 19 17 15 15 15 15 15 15 14 14 14 14 12 11 10 9 8 9 7 4 4 5 5 4 4 4 5 5 6 8 9 8 7 8 8 7 5 5 6 7 7 7 8 9
1 1 4 5 6 4 5 6 8 7 7 8 8 3 3 6 5 6 6 4 3 3 6 11 11 13 15 14 12 12 13 14 14 14 15 15 16 17 18 18 18 18 19 20 20 19 19 20 23 25 26 26 24 21 19 17 17 16 16 15 16 15 15 15 15 15 13 12 11 11 12 10 8 7 5 6 5 5 5 6 6 7 8 9 9 9 8 7 7 6 5 6 7 7 7 8 9
1 2 6 7 6 5 4 3 6 7 6 5 4 1 3 4 3 7 10 11 6 3 3 5 4 5 9 10 10 10 11 12 14 15 15 16 16 17 18 19 19 20 21 22 21 20 19 20 22 24 25 27 26 24 21 19 19 18 16 16 17 16 15 16 17 17 15 13 13 14 14 13 11 10 8 7 7 7 7 7 8 7 9 11 11 9 8 7 6 6 6 5 7 8 8 10 11
2 1 5 6 8 8 4 4 5 5 5 3 2 1 0 2 3 4 9 15 14 8 8 6 5 4 5 7 8 9 10 11 12 13 15 16 17 17 18 19 19 20 22 24 23 22 20 19 21 23 24 26 26 26 24 22 23 20 17 17 18 16 16 16 17 18 17 15 15 16 16 15 13 12 11 9 8 9 8 8 8 8 8 11 12 9 7 7 6 6 6 6 8 9 10 11 12
3 2 6 4 8 8 5 6 5 4 3 1 1 2 4 5 4 5 10 16 16 14 14 14 12 9 8 10 12 12 13 13 13 13 14 16 17 18 19 20 21 21 23 24 24 24 21 19 21 23 23 23 24 26 26 26 26 24 21 19 19 18 18 17 17 18 18 17 18 18 18 17 15 14 13 11 10 9 7 7 7 7 7 8 11 10 9 9 6 6 7 8 9 10 11 12 12
1 5 8 6 8 7 6 7 5 5 2 1 1 4 5 6 6 8 14 18 19 15 14 16 16 14 13 14 15 16 16 17 16 16 16 15 17 19 20 22 23 23 23 24 25 24 22 20 22 22 23 23 23 25 27 27 27 26 25 23 21 20 20 18 17 18 20 20 19 19 19 18 17 15 14 12 11 10 8 8 6 6 6 7 10 11 11 10 7 7 8 9 10 10 11 12 13
2 6 7 8 9 6 6 6 6 5 2 2 1 4 4 3 3 5 9 9 13 15 14 16 16 16 16 16 17 18 19 19 19 18 18 18 19 20 21 22 24 25 24 24 24 24 24 22 21 22 23 24 24 25 24 26 27 26 27 26 24 22 21 20 19 19 20 21 21 20 20 20 19 17 16 15 13 11 9 10 8 6 6 6 10 12 12 11 9 8 9 10 11 12 12 13 13
3 5 5 7 7 6 6 5 7 6 2 4 2 4 5 1 1 11 14 6 7 13 15 15 16 16 15 15 16 18 20 20 20 21 22 22 22 22 22 23 23 25 26 25 24 25 25 24 22 22 23 25 26 27 25 25 25 24 25 27 28 26 23 22 22 21 21 23 22 21 21 21 20 19 19 18 15 12 11 12 10 8 6 7 10 12 13 12 10 9 9 11 12 12 13 13 14
2 3 1 5 6 4 8 8 8 7 3 5 2 3 7 5 9 21 19 13 10 10 12 13 14 15 13 14 15 17 19 19 21 23 24 23 23 23 23 24 24 25 25 25 25 26 26 25 24 23 24 26 27 28 28 28 25 23 25 26 27 28 27 27 25 24 22 23 23 22 22 22 22 22 21 20 17 13 12 12 12 10 8 8 11 12 13 12 11 9 10 11 12 12 13 14 14
2 3 1 3 3 3 9 9 7 6 5 7 3 1 6 6 16 23 14 14 15 11 12 12 13 14 14 15 17 19 20 20 22 24 24 24 23 23 23 24 25 26 25 26 27 27 27 26 25 25 26 27 28 28 29 30 28 26 26 26 26 26 28 30 29 27 24 23 23 23 23 23 23 22 23 23 20 16 15 14 13 12 11 10 11 13 13 14 12 11 11 12 13 13 14 14 14
1 2 0 1 2 1 6 7 8 5 4 8 4 1 7 7 8 14 10 12 13 12 13 13 14 15 16 17 18 20 21 21 22 22 23 24 23 23 22 23 25 26 26 27 28 28 28 27 26 26 27 28 28 28 29 30 31 30 28 27 28 27 27 30 31 28 27 27 26 24 23 24 24 23 25 25 22 18 18 17 15 14 13 12 12 14 15 15 13 11 12 13 14 14 14 15 15
1 2 1 3 2 1 2 4 7 4 3 9 6 1 7 6 3 8 9 9 10 11 11 12 13 14 15 17 18 20 21 20 20 20 22 21 21 23 23 23 24 26 27 27 28 29 29 29 27 27 27 29 28 27 28 29 30 31 30 30 32 31 29 29 30 29 30 30 29 26 24 24 25 25 26 25 23 21 20 20 18 16 15 15 15 16 16 15 15 14 14 14 14 14 14 15 16
2 2 2 2 3 3 2 2 3 2 3 6 6 3 4 3 4 7 7 7 9 10 11 12 13 13 14 16 19 21 20 19 19 20 20 19 17 19 21 23 24 25 26 27 28 29 30 29 28 27 27 28 29 27 27 28 29 31 32 32 35 36 34 31 31 30 30 32 31 27 24 23 24 26 26 26 24 22 22 21 21 18 17 17 17 19 18 16 16 16 16 16 15 14 14 15 16
3 4 3 2 2 3 2 1 2 3 1 3 6 5 5 6 7 8 7 9 11 13 15 16 16 17 17 18 20 22 23 22 23 24 23 22 20 19 20 20 22 24 26 27 28 28 29 29 29 28 28 29 29 29 28 28 29 30 31 32 35 37 36 34 33 32 30 31 33 29 25 24 24 25 27 27 26 23 21 23 23 20 19 19 19 20 20 19 20 18 17 18 17 15 15 15 15
2 4 3 3 2 4 3 1 4 5 2 3 5 6 8 9 11 16 17 16 16 17 19 20 20 21 20 21 23 25 26 26 28 28 28 27 26 24 23 22 22 23 25 27 28 28 29 29 29 29 29 30 30 30 29 29 30 31 32 33 35 36 36 35 33 35 34 32 32 31 29 28 27 26 27 28 29 25 23 25 24 21 20 21 22 23 23 24 23 20 19 19 18 17 16 16 16
2 1 2 2 2 2 1 3 3 4 2 4 6 7 9 8 9 13 18 19 19 20 20 21 20 20 21 23 26 27 28 30 30 30 30 30 28 27 27 25 24 24 25 26 28 29 29 30 31 30 31 31 31 31 30 30 31 33 34 35 36 37 36 35 32 34 38 38 36 35 33 32 31 29 28 29 31 28 25 26 24 21 21 22 25 25 25 25 23 20 19 18 19 20 19 18 17
4 3 2 3 3 2 1 3 1 1 1 5 6 7 10 10 8 10 18 20 18 19 20 21 21 21 23 25 28 29 30 32 30 30 31 31 29 28 27 26 26 26 27 27 28 29 29 31 32 31 31 32 33 33 32 31 32 34 36 37 37 38 36 35 33 31 35 40 42 41 38 36 35 33 31 31 32 31 27 26 23 22 23 24 25 25 24 24 23 21 19 19 19 20 21 21 19
3 3 2 3 3 5 1 4 2 2 2 4 5 7 11 11 9 11 16 15 16 21 20 22 24 24 26 27 29 30 31 31 28 28 29 29 28 28 27 27 27 28 29 29 30 29 30 31 31 31 31 33 33 34 34 32 32 33 36 37 37 38 37 35 33 31 32 36 40 42 41 40 39 38 35 34 35 34 31 28 24 24 25 25 26 26 25 24 24 22 20 21 22 19 19 21 21
2 1 1 3 3 2 2 4 3 2 2 4 6 6 10 12 11 13 17 15 18 25 24 23 25 24 27 28 28 28 27 26 25 26 27 27 27 26 26 27 27 28 28 30 31 32 32 32 32 32 32 32 33 34 35 33 32 32 33 36 36 37 37 35 34 33 33 33 34 37 40 41 41 39 36 35 36 37 37 32 26 25 27 27 27 27 27 26 26 24 22 23 25 22 21 21 22
2 2 1 3 2 1 1 1 3 4 3 3 6 6 8 11 12 14 19 22 23 26 26 26 28 28 31 30 28 26 23 22 22 23 25 25 25 24 25 26 26 27 28 30 32 33 34 34 34 33 32 32 33 35 35 34 32 31 31 34 36 36 36 34 33 32 33 33 32 33 37 38 37 34 34 35 37 39 38 32 25 26 28 27 28 27 27 28 27 25 24 25 26 24 23 24 24
4 5 4 4 2 1 2 1 1 3 2 1 4 6 6 8 10 9 13 16 18 22 23 25 29 31 31 31 29 27 25 23 21 21 22 23 23 23 23 23 24 25 27 28 31 32 33 34 34 34 33 33 34 35 35 34 33 32 31 33 36 37 36 34 32 32 32 33 33 33 33 33 31 30 32 33 35 38 36 29 25 27 29 28 29 27 26 27 26 25 24 27 27 24 23 25 28
4 5 6 5 3 3 2 5 5 4 3 1 1 4 5 3 6 8 7 6 8 12 15 20 26 27 26 28 27 26 25 23 21 21 22 21 21 22 22 22 23 23 24 24 26 28 29 30 32 34 35 35 35 36 36 35 35 33 32 34 36 38 37 35 33 32 32 33 33 32 31 30 29 28 29 30 32 33 30 27 27 29 29 29 29 27 27 28 26 24 24 27 28 24 22 25 28
3 4 2 1 2 4 4 5 3 2 4 4 3 1 5 4 4 9 8 7 7 8 10 16 22 22 22 23 22 21 18 16 15 17 20 21 21 21 21 20 20 19 20 20 21 23 24 27 29 32 35 36 36 36 36 36 35 34 33 33 35 36 35 33 32 32 31 32 32 31 31 29 28 26 26 28 29 29 26 25 26 27 27 27 27 27 28 29 26 24 25 27 27 24 23 25 26
2 4 4 4 4 2 1 3 1 2 5 5 5 5 5 6 6 11 12 11 10 8 8 12 17 18 18 18 17 15 12 10 10 11 14 18 19 18 16 14 14 14 15 17 19 20 22 24 26 29 32 34 35 36 36 37 36 35 33 32 33 34 33 31 31 31 31 32 32 31 31 30 28 27 27 28 28 27 26 25 26 26 26 26 27 27 28 29 27 25 27 30 27 24 24 25 24
1 3 3 5 5 3 2 2 2 2 5 5 4 6 3 7 5 8 10 10 8 10 10 9 13 16 14 11 10 9 8 9 9 8 9 12 12 10 9 8 10 11 13 16 17 18 20 21 24 27 30 32 33 34 35 36 36 35 33 31 32 33 32 31 31 31 32 32 33 33 33 32 30 29 30 30 30 28 26 25 26 27 27 27 27 27 27 29 29 28 30 31 27 25 24 24 23
3 3 5 6 4 4 3 1 2 3 4 4 5 6 2 8 5 6 7 7 7 9 9 7 12 12 7 6 6 7 9 9 8 8 7 7 7 5 6 7 8 10 11 13 15 16 18 20 22 25 27 29 30 31 33 34 35 35 33 32 33 32 32 32 32 33 33 34 36 36 35 32 31 31 33 33 33 31 28 27 28 29 28 28 28 27 26 27 30 31 30 29 27 26 25 25 24
7 4 5 5 3 4 3 1 3 3 4 4 8 10 3 5 4 5 6 6 7 7 4 6 10 8 6 5 5 7 8 8 8 8 8 7 6 5 5 6 7 8 9 10 12 13 15 18 20 22 25 26 27 29 31 32 33 34 33 32 33 33 33 34 34 35 35 36 37 38 36 32 31 32 35 36 34 32 29 29 30 30 30 30 29 28 26 25 28 31 30 28 28 27 26 26 25
5 3 4 4 2 3 4 2 3 1 6 3 6 10 7 5 5 1 3 5 8 7 5 6 5 3 6 4 4 6 7 7 8 9 9 8 7 7 7 7 8 9 10 10 11 12 14 16 19 21 23 25 26 27 28 30 31 32 32 32 34 34 34 35 36 36 37 37 37 38 36 33 31 33 36 35 32 31 29 30 31 31 31 32 30 28 27 25 28 32 32 29 29 28 26 26 26
2 3 5 4 1 1 1 1 1 3 6 4 1 5 5 9 5 3 5 3 5 5 4 5 4 2 2 2 4 7 9 10 10 10 10 10 9 10 10 11 13 13 13 13 14 15 16 18 20 22 23 25 26 27 28 29 30 31 31 32 34 35 35 36 36 35 36 37 37 37 37 35 33 35 36 33 31 32 31 31 32 31 30 31 29 28 27 27 31 35 32 29 30 29 28 28 27
5 5 6 5 3 2 3 4 2 4 5 2 2 3 4 7 3 6 10 10 11 10 7 7 7 9 11 10 10 12 14 14 13 12 12 12 12 13 13 15 17 17 16 16 17 18 19 20 22 23 24 25 26 27 28 28 29 29 30 31 34 35 36 37 36 35 35 35 36 36 35 35 34 34 36 34 33 34 33 31 32 31 30 29 27 26 27 29 32 35 32 30 31 30 29 30 29
7 5 4 4 4 4 4 4 3 4 3 2 0 1 3 3 2 4 3 5 9 13 13 13 12 15 15 13 14 16 18 18 17 16 15 15 16 15 16 18 20 20 20 20 20 20 21 22 22 23 24 25 26 27 27 27 28 28 29 31 34 36 36 37 37 36 35 33 33 32 33 33 32 32 33 33 35 37 37 35 34 33 31 30 27 26 29 32 34 34 32 31 32 31 31 31 30
4 2 2 4 4 3 2 2 3 2 2 3 2 4 5 3 6 7 4 8 6 11 15 16 16 18 15 15 18 19 19 19 19 18 18 18 18 17 19 20 21 21 20 20 20 20 21 21 21 23 24 25 26 27 28 27 27 26 28 31 34 36 37 37 38 37 35 32 31 32 33 33 31 31 32 34 37 40 39 36 34 33 32 30 28 28 31 34 35 36 34 33 33 33 32 33 31
3 2 4 4 1 3 2 2 2 4 2 4 3 6 6 3 8 9 10 13 9 6 10 14 18 19 17 20 24 23 21 19 18 19 19 19 19 18 19 19 19 18 18 19 20 20 21 20 20 22 23 25 26 27 28 27 27 27 28 31 33 36 38 38 38 37 35 32 32 34 35 34 32 31 32 35 37 37 35 33 33 33 32 30 29 30 33 36 36 36 35 35 35 34 34 33 32
4 4 5 1 4 2 3 0 2 1 5 5 4 8 8 4 7 4 4 9 9 6 8 11 16 18 19 23 24 24 22 18 17 18 18 18 20 20 18 17 17 16 17 18 18 19 19 18 19 20 22 24 25 26 27 28 27 26 27 30 33 36 38 39 38 36 35 34 35 36 35 34 32 30 30 32 33 32 32 34 34 33 31 30 30 32 35 37 36 36 36 36 36 35 35 35 33
4 2 1 3 1 2 2 2 2 4 5 5 4 8 7 6 7 5 4 7 8 8 9 9 12 16 19 23 23 22 21 19 17 16 14 15 19 22 20 17 16 16 17 17 17 18 18 16 17 19 21 22 23 26 27 28 28 26 26 29 33 36 37 39 38 36 35 35 35 35 34 33 32 31 30 31 32 33 35 36 34 32 31 31 32 35 37 37 37 37 37 37 37 37 36 35 34
3 3 2 2 2 3 4 3 2 3 4 5 5 7 6 6 6 7 9 10 10 10 9 8 11 17 21 21 20 20 19 17 13 10 9 11 17 22 22 18 16 16 17 16 16 17 16 15 16 17 19 21 22 25 27 28 28 27 27 29 32 36 38 39 39 37 35 35 35 34 34 33 32 32 32 32 33 35 37 37 34 32 31 31 32 37 40 39 39 39 38 38 38 38 37 36 34
3 2 2 3 2 2 1 1 2 4 3 3 4 8 8 4 4 7 10 10 10 10 8 7 12 19 19 17 16 17 18 15 9 8 9 10 14 19 22 21 18 18 19 18 17 17 16 16 15 15 17 19 21 23 25 27 28 27 27 28 31 35 38 40 39 38 36 35 35 36 35 33 33 33 33 33 35 36 37 37 36 33 32 32 33 37 40 41 41 40 38 38 39 39 38 37 35
9 8 8 9 6 4 2 3 3 2 2 3 2 8 11 5 3 4 6 5 7 11 10 9 13 17 14 12 13 15 18 15 9 9 11 10 13 17 21 23 22 21 21 20 18 18 18 18 16 14 15 18 20 21 23 25 26 27 26 27 30 33 37 39 40 39 39 37 37 38 38 36 35 35 35 34 35 37 39 39 38 35 32 32 34 37 41 42 41 40 39 39 40 39 38 37 36
Wind_Direction
188 174 171 182 201 241 277 252 277 234 167 83 99 106 77 57 107 129 112 115 105 62 53 62 48 36 43 18 76 70 51 42 46 51 126 152 154 152 146 155 159 159 154 141 145 139 138 137 129 125 119 118 116 112 109 106 102 97 91 91 92 92 89 89 86 75 67 67 61 58 59 57 55 55 56 59 61 63 67 71 72 73 78 86 89 89 92 97 97 91 89 87 85 85 85 84 84
179 181 177 192 227 255 272 189 204 251 124 82 75 81 103 120 160 101 88 81 80 85 76 73 66 58 48 23 89 74 54 53 74 107 129 150 155 158 146 147 161 159 154 145 151 147 144 143 138 134 130 128 124 121 118 115 110 104 101 102 104 101 95 91 85 74 72 72 67 63 64 62 60 58 58 59 61 64 68 74 78 81 81 85 91 93 94 93 92 88 86 87 87 86 86 86 86
177 184 174 190 266 256 278 208 227 273 115 97 71 101 157 141 93 74 74 79 87 95 86 86 83 55 354 348 39 70 76 66 76 115 134 149 160 165 142 139 163 157 157 154 156 156 149 148 146 142 137 135 132 130 126 124 121 116 115 113 113 109 101 94 86 80 80 77 73 71 70 68 64 60 59 58 59 62 65 72 79 87 84 81 89 96 95 88 84 85 87 89 89 88 88 88 88
177 183 174 129 305 258 264 236 252 335 76 100 99 163 167 100 88 80 83 87 93 95 90 96 91 57 17 11 26 68 103 84 76 123 138 148 173 169 145 146 164 153 160 159 159 160 155 155 153 148 141 140 139 136 134 132 130 124 121 121 121 115 107 98 90 85 80 76 76 76 74 69 65 61 60 59 59 60 61 69 77 88 92 90 92 96 96 91 84 87 92 92 90 90 89 89 88
176 186 187 80 311 269 283 271 333 35 34 65 114 157 111 92 98 97 94 92 93 91 95 102 93 99 61 38 24 75 110 101 108 138 143 152 180 172 151 148 159 156 156 155 165 166 162 163 159 156 147 144 143 140 138 135 135 131 127 126 126 121 114 105 94 86 80 80 78 76 75 70 66 62 61 62 61 60 61 68 73 85 99 107 106 104 103 102 96 93 95 93 91 91 89 88 86
169 185 262 295 278 289 311 284 65 75 6 5 108 116 96 102 110 108 107 97 87 95 103 84 68 117 89 72 68 100 130 127 139 160 154 160 182 177 157 147 154 160 151 155 177 176 168 168 165 164 157 152 148 144 141 137 138 137 136 132 130 129 120 110 100 91 83 81 79 76 77 73 70 65 62 64 62 61 63 69 71 75 96 114 117 114 109 108 103 97 96 95 93 92 90 88 84
160 140 266 283 278 267 271 119 73 84 349 1 90 110 99 106 117 119 121 109 94 116 108 79 80 108 105 117 89 99 143 157 160 171 168 175 183 172 157 145 154 163 154 167 182 180 174 174 171 168 166 161 156 154 147 142 143 141 144 141 140 137 128 119 108 94 81 75 77 78 79 78 74 68 65 66 63 63 66 72 76 76 86 106 116 111 105 105 102 99 99 97 96 95 92 88 84
152 106 253 284 287 219 264 67 66 77 40 26 53 84 108 118 129 134 141 136 139 146 137 119 143 279 112 119 98 119 150 159 175 175 175 184 176 162 158 149 157 161 165 182 181 181 182 180 177 172 172 166 163 163 153 151 150 149 150 149 149 147 141 134 121 97 79 73 77 80 79 80 76 70 68 67 66 66 71 76 80 83 86 95 105 106 105 104 102 102 101 100 98 95 91 88 84
152 304 281 276 280 247 283 92 90 93 111 96 64 80 112 131 141 142 139 126 138 143 142 154 182 114 114 103 103 140 164 155 167 164 165 172 162 164 164 154 161 164 175 193 182 187 191 185 182 175 175 171 169 167 159 159 155 156 155 154 155 154 152 147 140 113 87 78 79 82 79 80 78 72 69 68 68 69 74 78 82 87 91 97 103 107 108 105 104 105 104 102 97 93 89 86 84
271 262 278 308 266 239 216 107 103 109 107 107 111 111 120 140 149 149 141 119 136 128 116 142 139 99 115 112 119 152 179 156 161 161 161 160 158 169 167 155 164 172 181 196 190 195 195 191 187 179 182 180 177 172 166 166 159 159 158 159 161 162 163 160 155 131 104 88 86 89 85 86 82 75 71 70 69 70 75 78 83 89 93 99 105 109 108 106 107 106 104 101 96 92 89 85 84
258 233 250 305 261 238 198 105 108 113 104 102 116 128 133 143 149 155 140 117 132 123 118 162 151 146 171 114 127 164 172 163 173 169 165 164 163 171 171 161 167 181 190 198 199 202 196 196 192 186 189 188 188 180 174 175 166 161 162 162 162 167 169 167 167 150 124 104 98 97 93 93 87 79 72 71 70 71 76 80 83 88 93 98 104 107 107 107 107 107 104 99 95 92 88 86 84
239 226 200 277 272 316 30 84 111 109 119 134 122 136 144 144 150 159 142 123 138 135 138 172 144 160 203 103 136 165 161 180 185 173 167 167 170 171 173 168 169 181 199 203 203 207 200 199 196 194 196 195 195 189 184 182 174 168 168 166 162 168 175 174 178 172 147 124 116 106 102 104 95 83 73 72 73 73 77 82 84 87 92 97 103 106 107 108 108 106 103 98 95 91 88 85 83
257 261 184 234 275 32 29 47 104 121 149 160 133 144 149 149 166 163 157 145 152 157 142 147 136 176 142 102 139 156 161 197 190 170 171 172 178 175 173 173 173 178 195 205 207 211 204 201 201 200 200 202 200 192 191 189 183 176 174 172 161 165 179 181 185 188 166 142 133 121 115 116 108 92 79 75 77 77 79 85 88 87 91 96 102 107 108 109 107 105 101 97 94 90 86 83 83
273 313 286 227 282 26 41 73 126 159 160 126 128 145 150 156 181 165 160 151 142 141 137 144 152 183 136 113 138 156 174 204 189 176 183 182 187 183 180 181 180 179 186 199 207 211 210 205 205 207 205 207 206 197 194 192 192 186 181 177 164 164 178 183 190 198 182 161 152 141 129 126 123 107 92 82 82 82 80 87 92 89 91 97 105 110 111 111 108 104 99 95 91 87 82 80 82
265 329 318 277 329 24 52 97 110 90 96 105 130 147 145 146 170 157 134 100 102 127 136 162 188 167 36 106 150 174 193 203 184 191 198 193 193 190 191 190 186 184 185 194 201 204 207 208 206 209 208 210 211 205 200 195 195 193 188 185 171 167 177 187 194 200 196 186 179 172 154 140 138 127 112 97 91 87 84 89 95 93 92 98 108 113 115 113 109 104 98 94 89 83 79 77 81
244 323 318 299 309 156 171 135 73 39 94 123 142 148 138 136 159 153 70 85 111 144 141 161 193 178 47 109 151 186 209 191 187 202 206 202 201 198 200 194 189 189 191 196 200 201 202 207 206 206 208 211 214 208 205 202 199 197 193 193 184 173 179 193 198 200 205 207 202 196 181 160 151 145 135 119 105 97 92 90 98 102 97 100 111 116 117 114 108 102 98 94 88 82 78 76 80
230 316 343 267 246 160 177 162 125 135 119 125 152 154 139 138 163 178 180 129 128 153 146 150 191 207 206 133 154 188 193 186 195 206 211 213 211 209 207 198 192 194 200 201 201 203 203 205 205 204 207 209 210 208 208 205 203 203 198 198 194 184 185 194 200 202 207 216 220 214 202 185 167 160 152 143 125 108 99 96 107 113 108 106 114 120 119 114 107 101 98 94 88 81 76 74 79
189 274 210 248 234 170 213 96 84 141 139 143 163 167 157 147 170 186 188 187 179 160 166 192 208 215 228 218 193 189 177 191 201 210 217 218 219 220 217 208 201 201 209 209 203 206 206 206 205 202 204 205 205 207 211 208 206 206 202 202 202 197 194 197 203 206 212 222 228 229 228 212 186 183 177 164 148 120 112 112 118 126 125 119 122 129 127 120 113 106 102 97 92 83 73 70 78
206 247 219 257 72 22 14 57 55 57 121 148 159 181 182 144 162 174 183 197 189 189 191 199 210 220 230 230 227 221 203 201 205 215 221 223 225 227 225 221 214 209 215 218 212 210 209 208 206 202 202 203 203 206 211 211 209 210 207 206 207 205 202 203 206 209 214 222 229 240 247 234 195 187 191 178 171 149 134 137 139 144 144 136 134 139 139 134 126 117 111 103 96 90 79 74 83
220 267 210 306 51 49 36 60 65 42 91 137 143 179 183 131 150 166 196 205 185 197 200 191 197 213 228 228 228 227 219 216 213 217 222 227 229 230 232 230 226 222 224 227 223 220 215 210 209 208 205 204 204 206 210 211 212 215 214 211 210 210 209 207 206 209 212 217 226 231 238 239 199 181 199 200 184 172 164 165 164 164 164 155 151 154 155 150 142 136 124 111 102 97 90 86 97
174 235 140 351 352 52 47 58 75 61 73 109 121 154 185 146 150 166 194 224 200 209 210 203 204 210 221 224 222 224 226 226 222 222 225 227 229 231 235 235 234 229 229 233 231 230 225 218 216 215 212 208 205 205 209 211 212 216 217 216 214 214 214 210 204 207 211 216 219 217 226 237 235 210 209 218 205 188 186 188 189 183 179 173 168 170 169 163 152 142 129 119 110 101 97 99 112
172 145 93 37 7 52 57 64 87 73 70 101 119 140 169 159 171 190 200 232 214 168 192 202 209 209 212 217 214 213 223 229 230 230 230 230 230 232 235 237 235 224 227 236 236 236 235 231 227 223 220 215 209 208 209 210 212 217 218 217 218 216 216 215 208 207 209 213 212 209 221 233 241 239 225 227 221 208 207 205 208 199 190 186 180 181 181 172 154 134 127 127 118 112 109 112 124
242 111 84 54 45 81 72 87 103 79 70 92 112 112 124 152 221 220 214 230 227 78 107 179 192 206 201 208 213 215 224 232 236 238 238 237 233 233 235 237 237 227 227 237 240 241 240 239 236 232 229 224 214 209 208 209 210 214 216 216 220 219 218 219 215 211 210 210 210 210 221 232 237 243 241 237 229 224 222 212 210 205 198 193 187 187 186 173 156 133 127 134 129 126 124 126 135
231 145 94 65 73 90 83 106 128 97 73 59 55 37 35 237 273 236 219 231 236 256 276 262 246 234 209 218 229 235 241 241 241 244 244 243 240 238 236 237 241 233 230 237 241 242 243 241 238 237 237 234 222 210 208 211 211 212 214 216 221 222 220 223 220 215 213 211 211 213 221 230 235 243 245 243 235 228 223 215 209 198 194 195 190 186 184 181 174 148 134 142 144 139 136 138 144
248 125 113 101 86 97 96 102 125 111 88 80 147 290 282 262 295 290 245 238 238 244 257 263 257 243 235 243 249 248 247 247 245 243 242 243 241 237 233 233 238 236 232 237 241 243 243 237 237 240 241 240 228 214 211 216 217 214 214 215 219 223 222 223 221 216 215 214 214 215 220 228 233 238 242 244 238 231 219 215 205 186 183 188 189 187 188 192 188 160 145 152 152 144 142 145 150
277 105 121 128 106 111 109 107 116 111 120 129 166 257 255 261 293 285 260 252 247 241 241 250 254 249 243 246 252 254 253 251 249 246 245 242 239 237 234 230 233 236 236 236 240 243 243 237 237 240 241 241 233 223 217 221 224 218 213 215 217 221 223 224 222 219 218 219 219 219 220 227 233 235 240 242 237 234 224 210 193 179 179 177 188 194 194 195 188 164 156 160 151 142 145 151 156
95 105 117 122 119 130 128 130 137 130 145 148 230 272 249 257 301 271 262 261 245 229 224 235 245 251 251 249 249 254 256 256 256 251 246 240 237 237 238 234 231 234 236 238 239 241 243 242 239 236 238 238 233 230 225 225 230 224 216 215 216 218 220 223 225 224 223 224 224 223 222 225 232 236 237 240 237 235 226 207 195 191 190 182 191 199 199 199 191 171 166 166 154 148 152 157 161
117 120 115 127 133 139 144 149 158 163 159 166 228 303 282 246 194 251 247 241 230 214 213 225 240 251 253 251 248 249 253 255 255 251 248 246 243 240 240 241 237 235 239 242 241 240 241 241 240 237 236 236 232 230 227 227 230 231 225 218 217 220 221 224 228 229 228 229 227 224 225 226 230 235 236 239 240 237 228 215 207 204 204 201 201 202 202 203 196 180 175 170 158 156 158 160 162
125 158 160 158 158 162 177 175 173 183 159 151 147 317 271 214 222 255 249 231 230 213 213 220 235 250 254 251 248 249 253 251 248 250 254 254 253 249 245 245 243 242 243 245 244 242 241 239 239 237 235 236 234 230 228 228 226 228 233 226 219 222 225 227 231 233 230 230 230 226 227 229 229 233 236 238 239 237 235 229 221 214 211 214 210 204 203 202 196 184 177 169 162 163 164 161 161
156 197 285 165 179 202 186 171 162 172 138 141 126 323 267 231 232 251 250 226 226 217 222 226 236 251 256 254 250 250 252 249 247 251 255 256 256 255 250 247 245 245 246 246 245 244 242 240 238 236 234 235 235 233 231 231 227 225 233 235 227 224 227 229 229 231 227 226 229 227 229 231 232 232 233 236 237 235 238 238 233 220 213 218 213 206 202 197 193 185 176 169 164 168 167 162 162
174 150 54 213 229 216 172 156 149 163 153 154 136 215 265 285 243 234 219 208 216 218 230 238 244 249 249 250 251 252 252 253 254 254 255 255 255 255 252 249 246 246 245 245 246 245 244 243 240 236 233 234 235 234 232 232 231 226 229 238 240 236 231 229 226 228 229 229 230 228 227 230 233 234 232 235 235 232 238 242 238 224 215 219 212 205 203 194 190 185 179 174 168 171 171 165 167
197 133 246 213 211 222 154 168 162 156 164 166 156 196 258 276 139 172 194 198 205 221 237 242 246 247 244 246 251 256 258 258 257 256 256 255 254 253 251 248 246 246 245 244 245 245 245 244 242 237 234 234 235 235 234 233 233 232 229 234 243 245 239 230 223 226 229 226 227 226 226 231 233 234 234 235 234 233 237 241 237 222 213 218 211 205 205 197 191 186 182 181 178 176 176 172 174
191 182 242 188 182 191 158 245 216 139 133 175 196 248 276 253 155 163 191 218 221 227 240 243 245 246 244 244 250 258 261 258 255 255 256 257 256 255 253 250 247 247 246 245 244 244 245 246 244 239 234 235 236 236 235 233 233 235 234 234 239 244 244 236 224 225 226 220 221 224 227 232 231 232 234 232 235 238 238 237 233 222 214 217 211 204 205 200 195 193 186 184 186 184 180 180 180
202 186 240 243 187 188 166 302 251 171 162 216 212 229 253 261 261 248 241 247 238 231 242 250 252 252 251 247 246 252 256 256 257 258 261 263 264 260 258 256 251 249 247 246 245 244 245 246 246 242 237 234 235 236 235 234 231 232 233 234 236 239 242 239 226 220 222 220 223 226 230 233 230 231 233 234 238 240 238 233 229 224 218 215 210 206 207 203 197 198 192 184 185 188 186 185 184
208 178 207 266 230 216 226 192 190 178 169 245 224 234 245 250 264 264 260 255 242 238 247 253 253 253 253 250 247 249 251 254 258 262 264 266 266 263 260 257 254 252 249 248 247 245 244 244 244 242 239 237 235 236 237 236 233 229 229 230 234 237 239 240 230 219 218 220 224 229 233 234 231 229 231 237 241 239 233 229 226 226 222 215 209 207 209 208 199 196 196 187 183 188 192 190 189
13 111 115 304 301 232 193 108 181 190 174 233 235 251 256 251 255 262 264 260 251 251 255 255 252 249 249 250 250 250 250 254 258 261 263 264 265 264 260 256 254 253 252 250 248 247 245 244 243 241 240 238 236 236 237 239 236 231 229 229 232 237 239 241 237 225 220 221 225 230 234 235 232 232 233 236 241 239 232 225 224 228 226 219 214 211 213 210 200 194 195 193 189 188 192 195 194
11 10 28 327 329 305 95 102 202 268 291 248 245 262 270 265 255 259 264 266 264 261 261 259 256 252 249 249 250 251 252 256 260 260 261 262 262 262 259 255 251 250 250 250 249 249 247 246 246 243 240 239 237 237 238 241 241 236 232 231 233 237 240 242 241 235 228 226 228 232 235 235 233 236 238 235 236 239 233 223 224 229 226 223 219 216 214 207 200 196 194 198 202 196 193 196 197
22 9 342 318 288 268 273 112 170 61 51 270 276 277 275 271 261 257 256 257 256 254 254 256 256 255 254 252 252 255 257 259 260 258 256 255 256 258 257 255 252 250 250 251 251 250 249 248 248 246 243 241 240 239 240 242 244 242 237 235 235 238 241 244 245 243 238 234 232 233 235 235 235 238 240 235 233 237 233 221 224 229 224 221 218 213 210 205 201 201 201 202 204 203 204 202 199
66 101 310 292 269 285 11 93 146 116 107 265 283 277 272 275 273 261 251 245 247 251 251 253 256 256 255 254 254 257 259 259 257 253 250 249 251 256 258 258 255 254 252 251 250 248 248 248 248 248 246 244 243 242 243 244 246 246 242 239 237 237 240 243 245 245 244 241 237 234 235 237 238 239 238 234 234 239 233 220 222 228 222 216 211 207 204 203 203 206 210 210 202 200 206 207 201
183 182 196 250 219 107 304 200 176 187 195 260 296 288 272 270 271 267 258 250 249 252 253 254 256 256 256 257 257 257 257 257 255 250 246 245 249 254 258 261 259 256 253 250 248 247 246 246 247 249 249 247 247 246 246 246 247 246 243 239 237 237 239 241 243 244 244 243 241 236 234 235 236 234 231 231 236 238 229 220 223 222 217 212 206 204 202 203 208 211 211 211 207 203 203 202 197
216 204 200 229 240 181 219 329 359 236 225 334 315 296 273 248 245 263 270 255 245 247 248 250 252 253 256 259 259 258 256 254 253 251 248 246 251 256 259 261 260 258 257 256 254 251 250 250 250 251 251 249 248 248 248 248 247 246 242 237 234 234 236 238 239 239 238 239 237 232 227 227 228 227 227 231 233 232 227 228 228 216 212 211 207 206 207 208 213 214 208 207 210 213 211 202 196
227 217 210 223 281 337 348 7 6 339 326 316 356 316 296 259 227 248 271 254 231 237 236 240 248 252 254 257 261 262 261 259 255 252 252 254 256 257 257 259 261 262 263 262 261 259 257 256 254 253 252 250 248 248 249 249 249 248 245 240 236 235 236 236 236 235 234 233 230 225 219 220 223 223 225 226 226 226 229 232 223 211 211 211 208 209 210 211 214 214 210 207 209 215 218 209 199
246 257 271 241 348 18 11 3 6 338 295 249 147 169 281 295 257 248 251 249 243 238 233 238 245 249 249 254 262 264 263 265 261 251 249 252 254 255 258 263 266 268 267 265 262 259 257 255 253 252 252 252 250 249 249 250 250 249 248 245 241 240 240 240 238 234 232 229 225 220 217 216 218 219 221 221 220 219 219 219 214 212 213 213 212 212 212 214 216 216 212 208 210 213 216 212 203
236 285 351 56 62 53 35 20 338 262 306 274 171 159 263 280 244 228 228 240 253 249 247 248 246 247 249 254 261 260 256 261 261 248 239 244 252 257 263 269 269 268 264 260 257 255 254 254 254 253 253 254 252 251 251 252 252 251 251 248 243 241 242 241 238 233 230 225 220 217 215 215 217 218 217 216 212 208 208 210 211 212 212 213 215 216 215 215 216 218 212 208 211 212 211 211 207
247 282 18 80 74 54 73 44 308 311 343 303 184 149 256 279 241 202 207 219 232 239 243 246 249 253 252 248 245 237 235 246 256 255 241 240 250 260 268 274 274 271 264 259 257 255 254 254 254 254 255 256 254 253 253 252 253 252 252 250 244 241 240 239 235 232 228 221 215 214 215 217 220 218 215 212 209 210 212 213 212 211 211 214 215 215 215 215 218 220 213 207 208 209 208 207 209
199 183 67 70 67 51 54 14 355 16 332 269 182 160 248 283 255 166 183 203 205 225 233 230 244 251 237 211 210 221 233 241 250 253 239 237 251 265 272 276 277 273 268 263 261 259 257 256 256 256 257 258 256 255 254 253 253 253 252 249 244 241 238 235 232 229 226 220 215 215 216 220 219 216 215 214 214 215 216 214 212 211 211 214 215 215 213 213 219 219 211 208 208 206 204 204 207
157 143 76 64 57 49 38 330 61 48 283 234 174 180 199 290 273 153 173 201 189 199 212 224 239 227 183 187 220 240 247 243 242 244 235 234 250 260 265 271 273 271 268 265 264 263 261 260 260 260 260 260 259 257 255 255 254 254 253 249 245 241 238 235 232 228 225 220 217 216 218 219 215 213 215 215 213 214 213 213 213 211 213 215 217 217 215 215 219 216 208 208 210 207 203 203 205
133 121 112 87 36 33 30 344 62 112 259 261 178 178 179 237 260 183 188 184 177 187 186 206 238 183 151 174 233 254 265 258 245 243 242 241 246 255 262 268 268 267 267 267 267 265 263 264 264 263 262 262 262 260 258 256 253 252 252 248 243 239 237 237 235 231 227 222 219 217 218 217 214 212 212 211 212 214 214 213 212 211 212 214 218 220 217 217 218 211 206 207 210 208 205 205 207
138 147 134 111 71 25 14 244 155 212 246 285 161 153 206 241 248 256 267 246 203 211 201 219 279 306 231 230 260 272 273 268 259 252 251 250 251 256 260 266 270 271 272 272 271 269 268 267 265 263 262 263 264 263 261 259 256 253 251 247 240 237 237 237 237 234 228 224 221 220 219 218 216 214 213 216 220 218 217 216 213 212 213 213 218 221 219 219 217 209 204 207 209 208 205 206 210
183 165 145 144 160 182 231 215 214 240 247 295 45 78 260 270 283 241 252 256 233 222 227 247 264 268 265 261 265 274 271 268 266 259 258 258 258 259 259 265 271 272 272 273 273 272 270 267 266 266 265 264 265 265 265 264 262 258 252 245 237 235 235 235 236 235 229 225 224 225 225 222 220 221 221 223 225 222 220 219 215 213 215 213 215 221 220 215 212 209 206 208 210 209 207 208 211
197 184 158 172 171 182 207 189 209 245 276 296 295 106 220 243 282 226 253 296 242 221 230 246 255 258 262 264 263 264 265 267 267 265 269 269 265 263 263 267 271 271 271 270 270 270 268 267 268 269 269 267 266 266 267 269 268 263 252 242 235 233 234 233 234 235 231 227 226 227 228 225 226 231 229 225 225 223 219 217 215 215 216 214 215 221 218 209 205 207 208 209 211 210 208 209 211
215 196 189 225 210 180 174 193 190 156 338 295 221 234 224 209 266 259 290 311 261 216 227 238 245 252 259 267 265 262 263 267 269 273 279 279 274 272 273 275 274 271 270 268 268 268 268 269 269 270 270 269 267 266 268 271 271 263 250 240 234 231 233 232 232 233 231 226 224 225 224 226 232 237 232 228 226 220 214 213 215 215 216 215 216 219 218 210 207 208 208 210 213 211 209 210 212
192 169 198 222 162 132 165 263 45 98 261 266 202 251 277 305 282 254 240 258 248 209 225 231 234 242 250 257 260 264 267 267 271 278 284 285 283 282 285 287 282 276 272 269 270 272 271 270 270 270 270 268 267 267 268 270 269 262 250 241 234 231 232 232 232 233 230 223 222 223 225 228 234 234 230 227 222 217 214 216 217 217 217 217 216 217 217 213 211 212 211 211 213 211 210 211 212
130 175 199 130 39 54 139 191 2 153 248 263 199 245 273 279 276 268 216 240 242 221 222 227 232 236 242 250 256 264 268 268 272 278 286 293 293 289 292 294 287 281 277 273 273 274 272 272 273 274 273 272 271 270 270 271 270 264 252 242 235 231 231 232 233 232 228 223 222 224 227 228 225 224 223 220 218 219 222 220 218 218 219 218 217 216 217 215 214 215 215 214 214 212 211 212 213
117 180 213 106 109 249 147 155 232 212 238 268 255 262 264 226 241 279 260 232 223 219 217 219 228 228 234 245 252 259 265 269 274 279 289 303 304 299 299 298 291 284 277 273 274 274 273 275 280 282 281 279 275 272 273 273 272 267 256 245 236 232 231 232 234 232 227 224 223 224 225 221 215 216 219 220 222 226 224 220 218 219 220 220 218 216 218 219 216 216 217 216 216 214 213 213 214
49 354 340 102 148 191 171 172 194 179 216 255 276 285 266 216 210 225 232 225 206 209 217 212 216 221 228 240 250 260 269 273 278 281 288 308 315 311 304 299 293 285 276 272 272 272 272 276 284 289 288 285 280 277 276 276 275 270 260 249 239 233 232 233 234 233 227 223 222 222 220 216 216 219 219 220 226 227 223 219 219 220 221 221 220 218 218 219 217 216 217 217 216 215 214 214 215
176 217 216 189 140 126 146 256 191 164 192 235 275 280 262 225 199 206 213 217 198 190 198 208 215 218 223 236 254 268 275 275 275 269 276 305 326 322 311 300 292 283 275 271 271 271 270 272 279 290 293 289 284 281 280 281 280 275 266 255 244 235 232 233 235 233 228 224 222 219 216 216 220 221 220 220 224 225 221 219 221 223 224 224 223 221 219 219 218 217 217 218 217 215 214 214 216
190 194 196 198 182 148 168 250 225 157 186 203 219 275 267 230 167 182 174 174 182 181 180 192 209 212 220 243 264 277 274 267 260 263 277 306 326 326 318 306 293 282 275 271 270 267 267 268 270 279 290 289 284 282 282 285 284 279 272 262 249 238 233 233 233 232 228 225 223 220 217 220 222 222 224 224 223 223 221 219 221 223 224 225 226 225 222 220 219 218 218 218 217 215 215 215 216